Weather in Bukachevtsy

Ukraine / Ivano-Frankovsk District     49˚15′16″N   24˚29′52″E
temp.,
°C
wind,
m/s
gust,
m/s
humid.,
%
clouds,
%
prec.,
mm/h
press.,
hPa
HPBL,
m
1 december, tue
tue123:00−4˚se128626 0.0 102921
02:00−4˚se228913 0.0 102832
05:00−4˚se23920 0.0 102859
08:00−5˚se23920 0.0 102873
11:00−1˚se47760 0.0 1027391
14:00+1˚ese47670 0.0 1026501
17:00−3˚ese38820 0.0 1026147
20:00−4˚ese38820 0.0 1027181
2 december, wed
wed223:00−4˚ese37850 0.0 1027181
02:00−5˚ese35880 0.0 102894
05:00−5˚ese23920 0.0 102647
08:00−5˚ese22940 0.0 102732
11:00−2˚ese358516 0.0 1026311
14:00se468044 0.0 1024540
17:00−1˚se378998 0.0 1024326
20:00−1˚se388999 0.0 1023460
3 december, thu
thu323:00−2˚se399185 0.0 1023310
02:00−3˚se3109451 0.0 1022303
05:00−3˚se4109544 0.0 1021305
08:00−4˚se4109664 0.0 1020311
11:00−1˚se6108472 0.0 1019414
14:00+1˚se6117566 0.0 1017498
17:00−1˚se6138448 0.0 1016407
20:00−2˚se6148841 0.0 1016368
4 december, fri
fri423:00−2˚se613949 0.0 1014376
02:00se6129143 0.0 1012407
05:00se5159379 0.0 1010397
08:00+2˚se6189363 0.0 1009499
11:00+6˚se9188435 0.0 1008613
14:00+8˚se7157744 0.0 1007491
17:00+5˚se5148685 0.0 1008290
20:00+6˚se5149292 0.0 1009361
5 december, sat
sat523:00+6˚se61492100 0.0 1010392
02:00+7˚se6139296 0.0 1010379
05:00+5˚sse4129473 0.0 1010288
08:00+6˚se5119481 0.0 1011282
11:00+8˚se598457 0.0 1011346
14:00+10˚se5107661 0.0 1010434
17:00+7˚se5148844 0.0 1010410
20:00+8˚se6149172 0.0 1010396